Zurück zum Katalog

COSMOS 976

AktivNavigationLEO
NORAD 10581·PAYLOAD·🇷🇺 Russia

Gestartet Jan 10, 1978 von Plesetsk Cosmodrome

Loading…

Nächste Überflüge (nächste 24 Stunden)

TLE

AktuellSource: Space-Track

Epoche: Sep 14, 2026, 10:55 UTC

1 10581U 78005A   26257.45525734  .00000010  00000-0  16683-3 0  9990
2 10581  74.0317 155.9862 0005857 296.1886 175.5241 12.51298359216199

Verfolge COSMOS 976 in Echtzeit mit AllMySat

Download on the App Store